| time (UTC) | temp F | wind direction | speed MPH | gust MPH | rain 1hr in | rain 24hr in | rain mn in | humidity % | barometer mb |
| 20260901103543 | 65 | 212 | 2.0 | 9.0 | 0.00 | 0.00 | 0.00 | 65 | 1022.6 |
| 20260901103101 | 65 | 259 | 3.0 | 11.0 | 0.00 | 0.00 | 0.00 | 65 | 1022.5 |
| 20260901102544 | 65 | 242 | 3.0 | 11.0 | 0.00 | 0.00 | 0.00 | 65 | 1022.6 |
| 20260901102044 | 65 | 229 | 2.0 | 12.0 | 0.00 | 0.00 | 0.00 | 65 | 1022.6 |
| 20260901101607 | 65 | 217 | 6.0 | 12.0 | 0.00 | 0.00 | 0.00 | 64 | 1022.7 |
| 20260901101044 | 65 | 226 | 3.0 | 11.0 | 0.00 | 0.00 | 0.00 | 65 | 1022.7 |
| 20260901100547 | 65 | 217 | 1.0 | 7.0 | 0.00 | 0.00 | 0.00 | 67 | 1022.8 |
| 20260901100110 | 64 | 221 | 1.0 | 5.0 | 0.00 | 0.00 | 0.00 | 69 | 1022.7 |
| 20260901095545 | 64 | 0 | 2.0 | 7.0 | 0.00 | 0.00 | 0.00 | 67 | 1022.8 |
| 20260901095045 | 63 | 273 | 2.0 | 7.0 | 0.00 | 0.00 | 0.00 | 68 | 1022.8 |
| 20260901094606 | 63 | 268 | 2.0 | 7.0 | 0.00 | 0.00 | 0.00 | 69 | 1022.9 |
| 20260901094043 | 63 | 219 | 2.0 | 7.0 | 0.00 | 0.00 | 0.00 | 71 | 1022.8 |
| 20260901093543 | 63 | 211 | 4.0 | 7.0 | 0.00 | 0.00 | 0.00 | 71 | 1022.9 |
| 20260901093105 | 63 | 210 | 3.0 | 7.0 | 0.00 | 0.00 | 0.00 | 71 | 1022.9 |
| 20260901092543 | 63 | 281 | 2.0 | 10.0 | 0.00 | 0.00 | 0.00 | 71 | 1023.0 |
| 20260901092045 | 63 | 225 | 4.0 | 10.0 | 0.00 | 0.00 | 0.00 | 71 | 1023.0 |
| 20260901091601 | 63 | 222 | 3.0 | 9.0 | 0.00 | 0.00 | 0.00 | 71 | 1023.0 |
| 20260901091044 | 62 | 0 | 0.0 | 0.0 | 0.00 | 0.00 | 0.00 | 72 | 1022.9 |
| 20260901090547 | 62 | 0 | 0.0 | 0.0 | 0.00 | 0.00 | 0.00 | 73 | 1023.0 |
| 20260901090106 | 62 | 0 | 0.0 | 0.0 | 0.00 | 0.00 | 0.00 | 75 | 1023.0 |
| 20260901085544 | 61 | 0 | 0.0 | 0.0 | 0.00 | 0.00 | 0.00 | 78 | 1023.0 |
| 20260901085045 | 61 | 0 | 0.0 | 0.0 | 0.00 | 0.00 | 0.00 | 79 | 1023.0 |
| 20260901084610 | 60 | 0 | 0.0 | 0.0 | 0.00 | 0.00 | 0.00 | 79 | 1022.9 |
| 20260901084044 | 60 | 0 | 0.0 | 0.0 | 0.00 | 0.00 | 0.00 | 80 | 1022.9 |
| 20260901083544 | 60 | 0 | 0.0 | 0.0 | 0.00 | 0.00 | 0.00 | 81 | 1022.8 |
| 20260901083104 | 59 | 0 | 0.0 | 0.0 | 0.00 | 0.00 | 0.00 | 83 | 1022.8 |
| 20260901082543 | 59 | 0 | 0.0 | 0.0 | 0.00 | 0.00 | 0.00 | 83 | 1022.8 |
| 20260901082043 | 59 | 0 | 0.0 | 0.0 | 0.00 | 0.00 | 0.00 | 87 | 1022.8 |
| 20260901081616 | 58 | 0 | 0.0 | 0.0 | 0.00 | 0.00 | 0.00 | 87 | 1022.9 |
| 20260901081043 | 57 | 0 | 0.0 | 0.0 | 0.00 | 0.00 | 0.00 | 88 | 1022.8 |
| 20260901080546 | 57 | 0 | 0.0 | 0.0 | 0.00 | 0.00 | 0.00 | 88 | 1022.7 |
| 20260901080107 | 56 | 0 | 0.0 | 0.0 | 0.00 | 0.00 | 0.00 | 89 | 1022.8 |
| 20260901075543 | 56 | 0 | 0.0 | 0.0 | 0.00 | 0.00 | 0.00 | 89 | 1022.7 |
| 20260901075046 | 55 | 0 | 0.0 | 0.0 | 0.00 | 0.00 | 0.00 | 89 | 1022.8 |
| 20260901074603 | 55 | 0 | 0.0 | 0.0 | 0.00 | 0.00 | 0.00 | 90 | 1022.7 |
| 20260901074046 | 55 | 0 | 0.0 | 0.0 | 0.00 | 0.00 | 0.00 | 90 | 1022.7 |
| 20260901073545 | 55 | 0 | 0.0 | 0.0 | 0.00 | 0.00 | 0.00 | 91 | 1022.7 |
| 20260901073102 | 55 | 0 | 0.0 | 0.0 | 0.00 | 0.00 | 0.00 | 91 | 1022.7 |
| 20260901072545 | 55 | 0 | 0.0 | 0.0 | 0.00 | 0.00 | 0.00 | 91 | 1022.7 |
| 20260901072044 | 54 | 0 | 0.0 | 0.0 | 0.00 | 0.00 | 0.00 | 91 | 1022.7 |
| 20260901071601 | 54 | 0 | 0.0 | 0.0 | 0.00 | 0.00 | 0.00 | 91 | 1022.7 |
| 20260901071043 | 54 | 0 | 0.0 | 0.0 | 0.00 | 0.00 | 0.00 | 92 | 1022.7 |
| 20260901070543 | 54 | 0 | 0.0 | 0.0 | 0.00 | 0.00 | 0.00 | 91 | 1022.6 |
| 20260901070058 | 54 | 0 | 0.0 | 0.0 | 0.00 | 0.00 | 0.00 | 92 | 1022.7 |
| 20260901065544 | 53 | 0 | 0.0 | 0.0 | 0.00 | 0.00 | 0.00 | 93 | 1022.7 |
| 20260901065044 | 53 | 0 | 0.0 | 0.0 | 0.00 | 0.00 | 0.00 | 92 | 1022.7 |
| 20260901064602 | 53 | 0 | 0.0 | 0.0 | 0.00 | 0.00 | 0.00 | 92 | 1022.7 |
| 20260901064044 | 53 | 0 | 0.0 | 0.0 | 0.00 | 0.00 | 0.00 | 92 | 1022.7 |
| 20260901063543 | 52 | 0 | 0.0 | 0.0 | 0.00 | 0.00 | 0.00 | 91 | 1022.6 |
| 20260901063106 | 52 | 0 | 0.0 | 0.0 | 0.00 | 0.00 | 0.00 | 91 | 1022.5 |
| 20260901062543 | 52 | 0 | 0.0 | 0.0 | 0.00 | 0.00 | 0.00 | 91 | 1022.4 |
| 20260901062043 | 52 | 0 | 0.0 | 0.0 | 0.00 | 0.00 | 0.00 | 92 | 1022.4 |
| 20260901061614 | 52 | 0 | 0.0 | 0.0 | 0.00 | 0.00 | 0.00 | 91 | 1022.4 |
| 20260901061043 | 52 | 0 | 0.0 | 0.0 | 0.00 | 0.00 | 0.00 | 91 | 1022.4 |
| 20260901060547 | 52 | 0 | 0.0 | 0.0 | 0.00 | 0.00 | 0.00 | 91 | 1022.4 |
| 20260901060106 | 52 | 0 | 0.0 | 0.0 | 0.00 | 0.00 | 0.00 | 91 | 1022.2 |
| 20260901055543 | 52 | 0 | 0.0 | 0.0 | 0.00 | 0.00 | 0.00 | 91 | 1022.2 |
| 20260901055043 | 52 | 0 | 0.0 | 0.0 | 0.00 | 0.00 | 0.00 | 91 | 1022.2 |
| 20260901054614 | 52 | 0 | 0.0 | 0.0 | 0.00 | 0.00 | 0.00 | 91 | 1022.3 |
| 20260901054046 | 52 | 0 | 0.0 | 0.0 | 0.00 | 0.00 | 0.00 | 91 | 1022.2 |
| 20260901053544 | 52 | 0 | 0.0 | 0.0 | 0.00 | 0.00 | 0.00 | 91 | 1022.2 |
| 20260901053122 | 52 | 0 | 0.0 | 0.0 | 0.00 | 0.00 | 0.00 | 91 | 1022.1 |
| 20260901052544 | 52 | 0 | 0.0 | 0.0 | 0.00 | 0.00 | 0.00 | 91 | 1022.1 |
| 20260901052044 | 52 | 0 | 0.0 | 0.0 | 0.00 | 0.00 | 0.00 | 91 | 1022.1 |
| 20260901051604 | 52 | 0 | 0.0 | 0.0 | 0.00 | 0.00 | 0.00 | 90 | 1022.1 |
| 20260901051044 | 52 | 0 | 0.0 | 0.0 | 0.00 | 0.00 | 0.00 | 90 | 1022.0 |
| 20260901050544 | 53 | 0 | 0.0 | 0.0 | 0.00 | 0.00 | 0.00 | 90 | 1022.0 |
| 20260901045543 | 53 | 0 | 0.0 | 0.0 | 0.00 | 0.00 | 0.00 | 90 | 1021.9 |
| 20260901045043 | 53 | 0 | 0.0 | 0.0 | 0.00 | 0.00 | 0.00 | 90 | 1021.9 |
| 20260901044603 | 53 | 0 | 0.0 | 0.0 | 0.00 | 0.00 | 0.00 | 90 | 1022.0 |
| 20260901044044 | 53 | 0 | 0.0 | 0.0 | 0.00 | 0.00 | 0.00 | 90 | 1021.9 |
| 20260901043544 | 53 | 0 | 0.0 | 0.0 | 0.00 | 0.00 | 0.00 | 90 | 1021.9 |
| 20260901043107 | 53 | 0 | 0.0 | 0.0 | 0.00 | 0.00 | 0.00 | 89 | 1021.9 |
| 20260901042543 | 53 | 0 | 0.0 | 0.0 | 0.00 | 0.00 | 0.00 | 89 | 1021.8 |
| 20260901042043 | 53 | 0 | 0.0 | 0.0 | 0.00 | 0.00 | 0.00 | 89 | 1021.8 |
| 20260901041610 | 53 | 0 | 0.0 | 0.0 | 0.00 | 0.00 | 0.00 | 89 | 1021.8 |
| 20260901041043 | 53 | 0 | 0.0 | 0.0 | 0.00 | 0.00 | 0.00 | 89 | 1021.7 |
| 20260901040543 | 53 | 0 | 0.0 | 0.0 | 0.00 | 0.00 | 0.00 | 88 | 1021.6 |
| 20260901040134 | 53 | 0 | 0.0 | 0.0 | 0.00 | 0.00 | 0.00 | 88 | 1021.6 |
| 20260901035544 | 53 | 0 | 0.0 | 0.0 | 0.00 | 0.00 | 0.00 | 88 | 1021.6 |
| 20260901035044 | 53 | 0 | 0.0 | 0.0 | 0.00 | 0.00 | 0.00 | 88 | 1021.5 |
| 20260901034601 | 54 | 0 | 0.0 | 0.0 | 0.00 | 0.00 | 0.00 | 88 | 1021.6 |
| 20260901034043 | 54 | 0 | 0.0 | 0.0 | 0.00 | 0.00 | 0.00 | 88 | 1021.6 |
| 20260901033543 | 54 | 0 | 0.0 | 0.0 | 0.00 | 0.00 | 0.00 | 88 | 1021.5 |
| 20260901033125 | 54 | 0 | 0.0 | 0.0 | 0.00 | 0.00 | 0.00 | 88 | 1021.5 |
| 20260901032543 | 54 | 0 | 0.0 | 0.0 | 0.00 | 0.00 | 0.00 | 87 | 1021.5 |
| 20260901032043 | 54 | 0 | 0.0 | 0.0 | 0.00 | 0.00 | 0.00 | 87 | 1021.6 |
| 20260901031613 | 54 | 0 | 0.0 | 0.0 | 0.00 | 0.00 | 0.00 | 87 | 1021.5 |
| 20260901031046 | 54 | 0 | 0.0 | 0.0 | 0.00 | 0.00 | 0.00 | 87 | 1021.5 |
| 20260901030543 | 54 | 0 | 0.0 | 0.0 | 0.00 | 0.00 | 0.00 | 87 | 1021.5 |
| 20260901030107 | 54 | 0 | 0.0 | 0.0 | 0.00 | 0.00 | 0.00 | 87 | 1021.5 |
| 20260901025544 | 54 | 0 | 0.0 | 0.0 | 0.00 | 0.00 | 0.00 | 87 | 1021.5 |
| 20260901025044 | 54 | 0 | 0.0 | 0.0 | 0.00 | 0.00 | 0.00 | 87 | 1021.3 |
| 20260901024605 | 54 | 0 | 0.0 | 0.0 | 0.00 | 0.00 | 0.00 | 87 | 1021.2 |
| 20260901024044 | 54 | 0 | 0.0 | 0.0 | 0.00 | 0.00 | 0.00 | 87 | 1021.2 |
| 20260901023543 | 54 | 0 | 0.0 | 0.0 | 0.00 | 0.00 | 0.00 | 88 | 1021.1 |
| 20260901023107 | 54 | 0 | 0.0 | 0.0 | 0.00 | 0.00 | 0.00 | 87 | 1021.2 |
| 20260901022544 | 54 | 0 | 0.0 | 0.0 | 0.00 | 0.00 | 0.00 | 87 | 1021.3 |
| 20260901022044 | 54 | 0 | 0.0 | 0.0 | 0.00 | 0.00 | 0.00 | 87 | 1021.2 |
| 20260901021609 | 54 | 0 | 0.0 | 0.0 | 0.00 | 0.00 | 0.00 | 86 | 1021.3 |
| 20260901021044 | 54 | 0 | 0.0 | 0.0 | 0.00 | 0.00 | 0.00 | 86 | 1021.3 |
| 20260901020546 | 55 | 0 | 0.0 | 0.0 | 0.00 | 0.00 | 0.00 | 86 | 1021.2 |
| 20260901020108 | 55 | 0 | 0.0 | 0.0 | 0.00 | 0.00 | 0.00 | 85 | 1021.4 |
| 20260901015543 | 55 | 0 | 0.0 | 0.0 | 0.00 | 0.00 | 0.00 | 85 | 1021.3 |
| 20260901015042 | 55 | 0 | 0.0 | 0.0 | 0.00 | 0.00 | 0.00 | 85 | 1021.3 |
| 20260901014602 | 55 | 0 | 0.0 | 0.0 | 0.00 | 0.00 | 0.00 | 84 | 1021.4 |
| 20260901014046 | 56 | 0 | 0.0 | 0.0 | 0.00 | 0.00 | 0.00 | 84 | 1021.4 |
| 20260901013544 | 56 | 0 | 0.0 | 0.0 | 0.00 | 0.00 | 0.00 | 84 | 1021.4 |
| 20260901013109 | 56 | 0 | 0.0 | 1.0 | 0.00 | 0.00 | 0.00 | 83 | 1021.4 |
| 20260901012543 | 56 | 0 | 0.0 | 1.0 | 0.00 | 0.00 | 0.00 | 83 | 1021.4 |
| 20260901012043 | 57 | 0 | 0.0 | 1.0 | 0.00 | 0.00 | 0.00 | 82 | 1021.4 |
| 20260901011604 | 57 | 0 | 0.0 | 1.0 | 0.00 | 0.00 | 0.00 | 82 | 1021.4 |
| 20260901011043 | 57 | 0 | 0.0 | 1.0 | 0.00 | 0.00 | 0.00 | 82 | 1021.4 |
| 20260901010543 | 57 | 0 | 0.0 | 3.0 | 0.00 | 0.00 | 0.00 | 82 | 1021.3 |
| 20260901010101 | 57 | 0 | 0.0 | 3.0 | 0.00 | 0.00 | 0.00 | 82 | 1021.3 |
| 20260901005546 | 57 | 0 | 0.0 | 3.0 | 0.00 | 0.02 | 0.00 | 82 | 1021.3 |
| 20260901005044 | 57 | 259 | 0.0 | 3.0 | 0.00 | 0.02 | 0.00 | 81 | 1021.3 |
| 20260901004608 | 57 | 0 | 0.0 | 3.0 | 0.00 | 0.02 | 0.00 | 81 | 1021.2 |
| 20260901004045 | 57 | 0 | 0.0 | 2.0 | 0.00 | 0.02 | 0.00 | 81 | 1021.3 |
| 20260901003544 | 57 | 259 | 0.0 | 3.0 | 0.00 | 0.02 | 0.00 | 81 | 1021.3 |
| 20260901003107 | 57 | 259 | 0.0 | 3.0 | 0.00 | 0.02 | 0.00 | 80 | 1021.3 |
| 20260901002544 | 58 | 259 | 1.0 | 3.0 | 0.00 | 0.02 | 0.00 | 80 | 1021.3 |
| 20260901002044 | 58 | 259 | 1.0 | 4.0 | 0.00 | 0.02 | 0.00 | 80 | 1021.3 |
| 20260901001609 | 58 | 260 | 1.0 | 4.0 | 0.00 | 0.02 | 0.00 | 80 | 1021.2 |
| 20260901001043 | 58 | 259 | 1.0 | 4.0 | 0.00 | 0.02 | 0.00 | 79 | 1021.2 |
| 20260901000544 | 58 | 0 | 0.0 | 4.0 | 0.00 | 0.02 | 0.00 | 79 | 1021.1 |
| 20260901000106 | 58 | 0 | 0.0 | 4.0 | 0.00 | 0.02 | 0.00 | 79 | 1021.0 |
| 20260831235544 | 58 | 261 | 1.0 | 4.0 | 0.00 | 0.02 | 0.00 | 79 | 1021.1 |
| 20260831235045 | 58 | 263 | 1.0 | 4.0 | 0.00 | 0.02 | 0.00 | 78 | 1021.1 |
| 20260831234601 | 59 | 280 | 1.0 | 4.0 | 0.00 | 0.02 | 0.00 | 78 | 1021.1 |
| 20260831234044 | 59 | 256 | 2.0 | 4.0 | 0.00 | 0.02 | 0.00 | 78 | 1021.1 |
| 20260831233544 | 59 | 255 | 1.0 | 4.0 | 0.00 | 0.02 | 0.00 | 78 | 1021.1 |
| 20260831233104 | 59 | 0 | 1.0 | 4.0 | 0.00 | 0.02 | 0.00 | 78 | 1020.9 |
| 20260831232543 | 59 | 0 | 1.0 | 4.0 | 0.00 | 0.02 | 0.00 | 78 | 1021.0 |
| 20260831232043 | 59 | 273 | 2.0 | 4.0 | 0.00 | 0.02 | 0.00 | 77 | 1021.0 |
| 20260831231604 | 59 | 278 | 1.0 | 3.0 | 0.00 | 0.02 | 0.00 | 77 | 1021.0 |
| 20260831231044 | 60 | 285 | 1.0 | 3.0 | 0.00 | 0.02 | 0.00 | 77 | 1021.1 |
| 20260831230544 | 60 | 291 | 0.0 | 3.0 | 0.00 | 0.02 | 0.00 | 77 | 1020.9 |
| 20260831230142 | 60 | 0 | 0.0 | 3.0 | 0.00 | 0.02 | 0.00 | 76 | 1020.9 |
| 20260831225544 | 60 | 290 | 1.0 | 4.0 | 0.00 | 0.02 | 0.02 | 76 | 1020.9 |
| 20260831225043 | 60 | 0 | 1.0 | 4.0 | 0.00 | 0.02 | 0.02 | 76 | 1020.9 |
| 20260831224619 | 60 | 312 | 1.0 | 4.0 | 0.00 | 0.02 | 0.02 | 76 | 1020.9 |
| 20260831224043 | 60 | 296 | 1.0 | 4.0 | 0.00 | 0.02 | 0.02 | 75 | 1020.8 |
| 20260831223547 | 61 | 308 | 1.0 | 5.0 | 0.00 | 0.02 | 0.02 | 75 | 1020.9 |
| 20260831223103 | 61 | 306 | 2.0 | 5.0 | 0.00 | 0.02 | 0.02 | 75 | 1020.9 |
| 20260831222544 | 61 | 303 | 2.0 | 6.0 | 0.00 | 0.02 | 0.02 | 74 | 1020.7 |
| 20260831222045 | 61 | 298 | 2.0 | 6.0 | 0.00 | 0.02 | 0.02 | 74 | 1020.8 |
| 20260831221630 | 61 | 296 | 3.0 | 8.0 | 0.00 | 0.02 | 0.02 | 74 | 1020.8 |
| 20260831221044 | 61 | 292 | 3.0 | 8.0 | 0.00 | 0.02 | 0.02 | 74 | 1020.8 |
| 20260831220544 | 61 | 286 | 4.0 | 9.0 | 0.00 | 0.02 | 0.02 | 73 | 1020.6 |
| 20260831220105 | 61 | 311 | 4.0 | 9.0 | 0.00 | 0.02 | 0.02 | 74 | 1020.6 |
| 20260831215544 | 61 | 292 | 5.0 | 9.0 | 0.00 | 0.02 | 0.02 | 73 | 1020.6 |
| 20260831215044 | 62 | 263 | 2.0 | 5.0 | 0.00 | 0.02 | 0.02 | 73 | 1020.6 |
| 20260831214610 | 62 | 295 | 2.0 | 5.0 | 0.00 | 0.02 | 0.02 | 73 | 1020.6 |
| 20260831214043 | 62 | 0 | 0.0 | 5.0 | 0.00 | 0.02 | 0.02 | 73 | 1020.6 |
| 20260831213543 | 62 | 303 | 2.0 | 5.0 | 0.00 | 0.02 | 0.02 | 72 | 1020.6 |
| 20260831213103 | 62 | 305 | 2.0 | 5.0 | 0.00 | 0.02 | 0.02 | 72 | 1020.5 |
| 20260831212543 | 62 | 296 | 1.0 | 5.0 | 0.00 | 0.02 | 0.02 | 72 | 1020.5 |
| 20260831212043 | 62 | 284 | 2.0 | 6.0 | 0.00 | 0.02 | 0.02 | 71 | 1020.3 |
| 20260831211616 | 62 | 299 | 2.0 | 7.0 | 0.00 | 0.02 | 0.02 | 71 | 1020.2 |
| 20260831211043 | 62 | 304 | 3.0 | 9.0 | 0.00 | 0.02 | 0.02 | 70 | 1020.1 |
| 20260831210544 | 63 | 264 | 4.0 | 9.0 | 0.00 | 0.02 | 0.02 | 70 | 1020.2 |
| 20260831210103 | 63 | 298 | 4.0 | 12.0 | 0.00 | 0.02 | 0.02 | 70 | 1020.2 |
| 20260831205543 | 63 | 312 | 4.0 | 12.0 | 0.00 | 0.07 | 0.02 | 70 | 1020.2 |
| 20260831205043 | 63 | 319 | 5.0 | 12.0 | 0.00 | 0.07 | 0.02 | 69 | 1020.1 |
| 20260831204602 | 63 | 315 | 5.0 | 9.0 | 0.00 | 0.07 | 0.02 | 69 | 1020.1 |
| 20260831204044 | 63 | 308 | 4.0 | 9.0 | 0.00 | 0.07 | 0.02 | 69 | 1020.1 |
| 20260831203542 | 64 | 280 | 3.0 | 11.0 | 0.00 | 0.07 | 0.02 | 69 | 1020.0 |
| 20260831203107 | 64 | 275 | 4.0 | 11.0 | 0.00 | 0.07 | 0.02 | 69 | 1020.0 |
| 20260831202543 | 64 | 279 | 5.0 | 10.0 | 0.00 | 0.07 | 0.02 | 69 | 1019.9 |
| 20260831202044 | 64 | 313 | 5.0 | 10.0 | 0.00 | 0.07 | 0.02 | 70 | 1019.7 |
| 20260831201606 | 64 | 317 | 4.0 | 9.0 | 0.00 | 0.07 | 0.02 | 71 | 1019.8 |
| 20260831201044 | 64 | 269 | 5.0 | 9.0 | 0.00 | 0.07 | 0.02 | 72 | 1019.7 |
| 20260831200543 | 64 | 299 | 5.0 | 9.0 | 0.00 | 0.07 | 0.02 | 72 | 1019.5 |
| 20260831200104 | 64 | 298 | 3.0 | 8.0 | 0.00 | 0.07 | 0.02 | 72 | 1019.5 |
| 20260831195543 | 64 | 286 | 3.0 | 8.0 | 0.00 | 0.07 | 0.02 | 72 | 1019.5 |
| 20260831195043 | 65 | 299 | 3.0 | 6.0 | 0.00 | 0.07 | 0.02 | 72 | 1019.3 |
| 20260831194654 | 65 | 311 | 3.0 | 5.0 | 0.00 | 0.07 | 0.02 | 71 | 1019.3 |
| 20260831194043 | 65 | 277 | 1.0 | 3.0 | 0.00 | 0.07 | 0.02 | 71 | 1019.2 |
| 20260831193543 | 65 | 0 | 0.0 | 3.0 | 0.00 | 0.07 | 0.02 | 70 | 1019.2 |
| 20260831193103 | 65 | 275 | 1.0 | 3.0 | 0.00 | 0.07 | 0.02 | 70 | 1019.0 |
| 20260831192542 | 65 | 275 | 0.0 | 3.0 | 0.00 | 0.07 | 0.02 | 70 | 1018.9 |
| 20260831192043 | 66 | 275 | 1.0 | 3.0 | 0.00 | 0.07 | 0.02 | 69 | 1018.8 |
| 20260831191602 | 66 | 275 | 1.0 | 4.0 | 0.00 | 0.07 | 0.02 | 69 | 1018.6 |
| 20260831191041 | 66 | 279 | 1.0 | 5.0 | 0.00 | 0.07 | 0.02 | 69 | 1018.6 |
| 20260831190543 | 66 | 275 | 1.0 | 9.0 | 0.00 | 0.07 | 0.02 | 69 | 1018.6 |
| 20260831190110 | 66 | 302 | 2.0 | 9.0 | 0.00 | 0.07 | 0.02 | 69 | 1018.6 |
| 20260831185544 | 66 | 286 | 3.0 | 9.0 | 0.00 | 0.07 | 0.02 | 69 | 1018.5 |
| 20260831185044 | 66 | 273 | 4.0 | 9.0 | 0.00 | 0.07 | 0.02 | 68 | 1018.6 |
| 20260831184617 | 66 | 276 | 2.0 | 9.0 | 0.00 | 0.07 | 0.02 | 68 | 1018.6 |
| 20260831184045 | 66 | 275 | 2.0 | 9.0 | 0.00 | 0.07 | 0.02 | 67 | 1018.6 |
| 20260831183543 | 67 | 238 | 5.0 | 11.0 | 0.00 | 0.07 | 0.02 | 67 | 1018.4 |
| 20260831183100 | 67 | 238 | 2.0 | 11.0 | 0.00 | 0.07 | 0.02 | 67 | 1018.4 |
| 20260831182543 | 67 | 309 | 4.0 | 10.0 | 0.00 | 0.07 | 0.02 | 67 | 1018.4 |
| 20260831182044 | 67 | 323 | 4.0 | 10.0 | 0.00 | 0.07 | 0.02 | 67 | 1018.3 |
| 20260831181602 | 67 | 318 | 4.0 | 14.0 | 0.00 | 0.07 | 0.02 | 66 | 1018.1 |
| 20260831181043 | 68 | 263 | 6.0 | 14.0 | 0.00 | 0.07 | 0.02 | 66 | 1018.2 |
| 20260831180543 | 68 | 247 | 6.0 | 14.0 | 0.00 | 0.07 | 0.02 | 66 | 1017.9 |
| 20260831175545 | 68 | 317 | 7.0 | 19.0 | 0.00 | 0.07 | 0.02 | 66 | 1017.9 |
| 20260831175043 | 69 | 245 | 6.0 | 15.0 | 0.00 | 0.07 | 0.02 | 65 | 1017.7 |
| 20260831174609 | 69 | 294 | 7.0 | 15.0 | 0.00 | 0.07 | 0.02 | 66 | 1017.7 |
| 20260831174043 | 69 | 296 | 5.0 | 12.0 | 0.00 | 0.07 | 0.02 | 67 | 1017.6 |
| 20260831173545 | 69 | 229 | 5.0 | 12.0 | 0.00 | 0.07 | 0.02 | 66 | 1017.7 |
| 20260831173104 | 69 | 281 | 6.0 | 17.0 | 0.00 | 0.07 | 0.02 | 66 | 1017.5 |
| 20260831172543 | 69 | 244 | 6.0 | 17.0 | 0.00 | 0.07 | 0.02 | 66 | 1017.5 |
| 20260831172043 | 69 | 237 | 7.0 | 16.0 | 0.00 | 0.07 | 0.02 | 66 | 1017.4 |
| 20260831171603 | 69 | 211 | 5.0 | 12.0 | 0.00 | 0.07 | 0.02 | 66 | 1017.4 |
| 20260831171043 | 69 | 261 | 5.0 | 13.0 | 0.00 | 0.07 | 0.02 | 66 | 1017.3 |
| 20260831170543 | 69 | 274 | 6.0 | 13.0 | 0.00 | 0.07 | 0.02 | 65 | 1017.2 |
| 20260831170132 | 69 | 271 | 6.0 | 13.0 | 0.00 | 0.07 | 0.02 | 65 | 1017.1 |
| 20260831165542 | 69 | 306 | 4.0 | 16.0 | 0.00 | 0.07 | 0.02 | 66 | 1017.0 |
| 20260831165044 | 69 | 275 | 8.0 | 16.0 | 0.00 | 0.07 | 0.02 | 66 | 1017.0 |
| 20260831164603 | 70 | 5 | 8.0 | 16.0 | 0.00 | 0.07 | 0.02 | 66 | 1016.9 |
| 20260831164049 | 70 | 290 | 6.0 | 18.0 | 0.00 | 0.07 | 0.02 | 66 | 1016.8 |
| 20260831163543 | 71 | 248 | 9.0 | 18.0 | 0.00 | 0.07 | 0.02 | 64 | 1016.7 |
| 20260831163105 | 71 | 298 | 7.0 | 15.0 | 0.00 | 0.07 | 0.02 | 62 | 1016.6 |
| 20260831162544 | 71 | 247 | 9.0 | 15.0 | 0.00 | 0.07 | 0.02 | 61 | 1016.4 |
| 20260831162043 | 71 | 297 | 8.0 | 16.0 | 0.00 | 0.07 | 0.02 | 61 | 1016.6 |
| 20260831161614 | 71 | 311 | 8.0 | 16.0 | 0.00 | 0.07 | 0.02 | 63 | 1016.5 |
| 20260831161042 | 69 | 321 | 4.0 | 8.0 | 0.00 | 0.07 | 0.02 | 71 | 1016.4 |
| 20260831160545 | 69 | 340 | 3.0 | 8.0 | 0.00 | 0.07 | 0.02 | 72 | 1016.3 |
| 20260831160106 | 69 | 328 | 3.0 | 8.0 | 0.00 | 0.07 | 0.02 | 72 | 1016.4 |
| 20260831155543 | 68 | 27 | 3.0 | 8.0 | 0.00 | 0.07 | 0.02 | 74 | 1016.4 |
| 20260831155045 | 68 | 20 | 4.0 | 9.0 | 0.00 | 0.07 | 0.02 | 74 | 1016.2 |
| 20260831154628 | 68 | 21 | 5.0 | 12.0 | 0.00 | 0.07 | 0.02 | 74 | 1016.3 |
| 20260831154043 | 68 | 325 | 6.0 | 12.0 | 0.00 | 0.07 | 0.02 | 74 | 1016.2 |
| 20260831153544 | 68 | 24 | 9.0 | 12.0 | 0.00 | 0.07 | 0.02 | 73 | 1016.2 |
| 20260831153103 | 68 | 24 | 7.0 | 12.0 | 0.00 | 0.07 | 0.02 | 72 | 1016.1 |
| 20260831152544 | 69 | 19 | 5.0 | 12.0 | 0.00 | 0.07 | 0.02 | 71 | 1016.1 |
| 20260831152046 | 70 | 333 | 8.0 | 12.0 | 0.00 | 0.07 | 0.02 | 69 | 1016.0 |
| 20260831151606 | 70 | 5 | 5.0 | 12.0 | 0.00 | 0.07 | 0.02 | 67 | 1015.9 |
| 20260831151044 | 70 | 317 | 7.0 | 12.0 | 0.00 | 0.07 | 0.02 | 66 | 1015.9 |
| 20260831150544 | 70 | 330 | 6.0 | 11.0 | 0.00 | 0.07 | 0.02 | 64 | 1015.8 |
| 20260831150104 | 70 | 291 | 5.0 | 12.0 | 0.00 | 0.07 | 0.02 | 65 | 1015.9 |
| 20260831145543 | 70 | 305 | 6.0 | 12.0 | 0.00 | 0.07 | 0.02 | 64 | 1015.9 |
| 20260831145043 | 70 | 303 | 6.0 | 14.0 | 0.00 | 0.07 | 0.02 | 65 | 1015.8 |
| 20260831144607 | 70 | 256 | 8.0 | 14.0 | 0.00 | 0.07 | 0.02 | 66 | 1015.8 |
| 20260831144044 | 70 | 290 | 5.0 | 14.0 | 0.00 | 0.07 | 0.02 | 65 | 1015.8 |
| 20260831143544 | 71 | 306 | 8.0 | 15.0 | 0.00 | 0.07 | 0.02 | 63 | 1015.8 |
| 20260831143102 | 71 | 285 | 7.0 | 16.0 | 0.00 | 0.07 | 0.02 | 64 | 1015.7 |
| 20260831142544 | 71 | 248 | 10.0 | 16.0 | 0.00 | 0.07 | 0.02 | 63 | 1015.7 |
| 20260831142043 | 71 | 310 | 6.0 | 16.0 | 0.00 | 0.07 | 0.02 | 63 | 1015.7 |
| 20260831141611 | 71 | 319 | 8.0 | 16.0 | 0.00 | 0.07 | 0.02 | 62 | 1015.5 |
| 20260831141045 | 71 | 298 | 4.0 | 16.0 | 0.00 | 0.07 | 0.02 | 66 | 1015.3 |
| 20260831140544 | 71 | 299 | 7.0 | 16.0 | 0.00 | 0.07 | 0.02 | 64 | 1015.2 |
| 20260831135544 | 71 | 247 | 6.0 | 14.0 | 0.00 | 0.07 | 0.02 | 66 | 1015.3 |
| 20260831135044 | 71 | 282 | 7.0 | 16.0 | 0.00 | 0.07 | 0.02 | 66 | 1015.2 |
| 20260831134604 | 70 | 275 | 7.0 | 16.0 | 0.00 | 0.07 | 0.02 | 67 | 1015.2 |
| 20260831134044 | 71 | 291 | 10.0 | 16.0 | 0.00 | 0.07 | 0.02 | 65 | 1015.3 |
| 20260831133544 | 71 | 291 | 6.0 | 16.0 | 0.00 | 0.07 | 0.02 | 66 | 1015.2 |
| 20260831133106 | 70 | 278 | 7.0 | 15.0 | 0.00 | 0.07 | 0.02 | 68 | 1015.1 |
| 20260831132543 | 70 | 236 | 8.0 | 15.0 | 0.00 | 0.07 | 0.02 | 69 | 1015.0 |
| 20260831132044 | 70 | 200 | 9.0 | 15.0 | 0.00 | 0.07 | 0.02 | 68 | 1015.0 |
| 20260831131610 | 69 | 287 | 9.0 | 15.0 | 0.00 | 0.07 | 0.02 | 67 | 1015.0 |
| 20260831131044 | 69 | 297 | 7.0 | 15.0 | 0.00 | 0.07 | 0.02 | 67 | 1015.0 |
| 20260831130546 | 69 | 288 | 8.0 | 14.0 | 0.00 | 0.07 | 0.02 | 69 | 1014.9 |
| 20260831125544 | 67 | 217 | 6.0 | 14.0 | 0.00 | 0.07 | 0.02 | 72 | 1014.9 |
| 20260831125044 | 68 | 295 | 6.0 | 14.0 | 0.00 | 0.07 | 0.02 | 70 | 1014.8 |
| 20260831124607 | 68 | 254 | 7.0 | 14.0 | 0.00 | 0.07 | 0.02 | 72 | 1014.7 |
| 20260831124044 | 68 | 268 | 7.0 | 13.0 | 0.00 | 0.07 | 0.02 | 72 | 1014.6 |
| 20260831123544 | 68 | 279 | 7.0 | 13.0 | 0.00 | 0.07 | 0.02 | 72 | 1014.5 |
| 20260831123103 | 69 | 277 | 5.0 | 13.0 | 0.00 | 0.07 | 0.02 | 72 | 1014.4 |
| 20260831122544 | 68 | 262 | 7.0 | 13.0 | 0.00 | 0.07 | 0.02 | 73 | 1014.2 |
| 20260831122043 | 68 | 270 | 8.0 | 14.0 | 0.00 | 0.07 | 0.02 | 72 | 1014.3 |
| 20260831121607 | 67 | 267 | 5.0 | 15.0 | 0.00 | 0.07 | 0.02 | 74 | 1014.3 |
| 20260831121047 | 67 | 289 | 7.0 | 15.0 | 0.00 | 0.07 | 0.02 | 74 | 1014.2 |
| 20260831120543 | 67 | 302 | 6.0 | 15.0 | 0.00 | 0.07 | 0.02 | 75 | 1014.2 |
| 20260831120108 | 66 | 306 | 6.0 | 15.0 | 0.00 | 0.07 | 0.02 | 77 | 1014.2 |
| 20260831115542 | 66 | 302 | 8.0 | 15.0 | 0.00 | 0.07 | 0.02 | 76 | 1014.2 |
| 20260831115043 | 67 | 296 | 8.0 | 15.0 | 0.00 | 0.07 | 0.02 | 74 | 1014.1 |
| 20260831114604 | 68 | 237 | 8.0 | 15.0 | 0.00 | 0.07 | 0.02 | 71 | 1014.0 |
| 20260831114042 | 68 | 288 | 7.0 | 17.0 | 0.00 | 0.07 | 0.02 | 71 | 1013.9 |
| 20260831113543 | 68 | 298 | 9.0 | 17.0 | 0.00 | 0.07 | 0.02 | 71 | 1013.7 |
| 20260831113103 | 67 | 352 | 9.0 | 16.0 | 0.00 | 0.07 | 0.02 | 72 | 1013.7 |
| 20260831112543 | 67 | 290 | 10.0 | 17.0 | 0.00 | 0.07 | 0.02 | 72 | 1013.5 |
| 20260831112042 | 68 | 294 | 7.0 | 17.0 | 0.00 | 0.07 | 0.02 | 72 | 1013.4 |
| 20260831111612 | 67 | 268 | 9.0 | 17.0 | 0.00 | 0.07 | 0.02 | 74 | 1013.4 |
| 20260831111042 | 67 | 293 | 7.0 | 14.0 | 0.00 | 0.07 | 0.02 | 73 | 1013.4 |
| 20260831110547 | 67 | 215 | 4.0 | 15.0 | 0.00 | 0.07 | 0.02 | 74 | 1013.3 |
| 20260831110104 | 66 | 322 | 8.0 | 15.0 | 0.00 | 0.07 | 0.02 | 74 | 1013.3 |
| 20260831105543 | 67 | 323 | 8.0 | 12.0 | 0.00 | 0.07 | 0.02 | 73 | 1013.2 |
| 20260831105043 | 67 | 259 | 6.0 | 14.0 | 0.00 | 0.07 | 0.02 | 76 | 1013.2 |
| 20260831104605 | 66 | 328 | 9.0 | 14.0 | 0.00 | 0.07 | 0.02 | 75 | 1013.1 |
| 20260831104042 | 66 | 300 | 5.0 | 14.0 | 0.00 | 0.07 | 0.02 | 77 | 1013.1 |